Stündliche Wetter Labapa

Heute, 16 Mai, Sonntag

Zeit Temperatur Niederschläge Wind Luftdruck Luftfeuchtigkeit
00:00 +8°C° 0 mm 2 m/S 744 mmHg 94%
01:00 +8°C° 0 mm 2 m/S 744 mmHg 94%
02:00 +8°C° 0 mm 2 m/S 744 mmHg 94%
03:00 +8°C° 0 mm 3 m/S 744 mmHg 93%
04:00 +8°C° 0 mm 3 m/S 743 mmHg 93%
05:00 +9°C° 0 mm 3 m/S 743 mmHg 89%
06:00 +11°C° 0 mm 4 m/S 743 mmHg 84%
07:00 +13°C° 0 mm 5 m/S 743 mmHg 80%
08:00 +14°C° 0.2 mm 5 m/S 743 mmHg 79%
09:00 +14°C° 0.2 mm 5 m/S 743 mmHg 79%
10:00 +15°C° 0.2 mm 5 m/S 743 mmHg 78%
11:00 +16°C° 0.7 mm 5 m/S 743 mmHg 78%
12:00 +16°C° 0.7 mm 5 m/S 743 mmHg 77%
13:00 +17°C° 0.7 mm 5 m/S 742 mmHg 77%
14:00 +17°C° 0.9 mm 4 m/S 742 mmHg 80%
15:00 +17°C° 0.9 mm 4 m/S 742 mmHg 84%
16:00 +15°C° 0.9 mm 4 m/S 742 mmHg 87%
17:00 +14°C° 0.8 mm 3 m/S 742 mmHg 88%
18:00 +15°C° 0.8 mm 2 m/S 741 mmHg 89%
19:00 +14°C° 0.8 mm 2 m/S 741 mmHg 91%
20:00 +14°C° 0.2 mm 2 m/S 741 mmHg 91%
21:00 +13°C° 0.2 mm 1 m/S 741 mmHg 92%
22:00 +13°C° 0.2 mm 1 m/S 741 mmHg 93%
23:00 +13°C° 0.7 mm 2 m/S 741 mmHg 94%

Morgen, 17 Mai, Montag

Zeit Temperatur Niederschläge Wind Luftdruck Luftfeuchtigkeit
00:00 +12°C° 0.7 mm 2 m/S 741 mmHg 96%
01:00 +12°C° 0.7 mm 2 m/S 741 mmHg 97%
02:00 +12°C° 0.2 mm 2 m/S 741 mmHg 96%
03:00 +12°C° 0.2 mm 2 m/S 741 mmHg 96%
04:00 +12°C° 0.2 mm 2 m/S 741 mmHg 95%
05:00 +12°C° 0 mm 2 m/S 742 mmHg 93%
06:00 +13°C° 0 mm 2 m/S 742 mmHg 90%
07:00 +14°C° 0 mm 2 m/S 742 mmHg 87%
08:00 +15°C° 0.3 mm 2 m/S 742 mmHg 81%
09:00 +16°C° 0.3 mm 2 m/S 742 mmHg 74%
10:00 +18°C° 0.3 mm 2 m/S 742 mmHg 68%
11:00 +18°C° 0.4 mm 2 m/S 742 mmHg 66%
12:00 +19°C° 0.4 mm 2 m/S 742 mmHg 64%
13:00 +20°C° 0.4 mm 1 m/S 742 mmHg 62%
14:00 +19°C° 0.3 mm 2 m/S 742 mmHg 64%
15:00 +19°C° 0.3 mm 2 m/S 741 mmHg 67%
16:00 +19°C° 0.3 mm 2 m/S 741 mmHg 69%
17:00 +17°C° 0.2 mm 2 m/S 741 mmHg 73%
18:00 +16°C° 0.2 mm 2 m/S 741 mmHg 77%
19:00 +15°C° 0.2 mm 2 m/S 741 mmHg 81%
20:00 +14°C° 0 mm 2 m/S 741 mmHg 85%
21:00 +13°C° 0 mm 2 m/S 741 mmHg 89%
22:00 +12°C° 0 mm 2 m/S 741 mmHg 92%
23:00 +12°C° 0 mm 2 m/S 740 mmHg 92%

übermorgen, 18 Mai, Dienstag

Zeit Temperatur Niederschläge Wind Luftdruck Luftfeuchtigkeit
00:00 +10°C° 0 mm 2 m/S 740 mmHg 93%
01:00 +10°C° 0 mm 2 m/S 740 mmHg 93%
02:00 +10°C° 0 mm 2 m/S 740 mmHg 93%
03:00 +9°C° 0 mm 2 m/S 740 mmHg 94%
04:00 +9°C° 0 mm 2 m/S 740 mmHg 94%
05:00 +10°C° 0 mm 2 m/S 739 mmHg 91%
06:00 +12°C° 0 mm 2 m/S 739 mmHg 88%
07:00 +12°C° 0 mm 3 m/S 739 mmHg 84%
08:00 +13°C° 0 mm 3 m/S 739 mmHg 79%
09:00 +15°C° 0 mm 4 m/S 739 mmHg 74%
10:00 +17°C° 0 mm 4 m/S 739 mmHg 68%
11:00 +16°C° 0 mm 5 m/S 739 mmHg 67%
12:00 +16°C° 0 mm 5 m/S 739 mmHg 67%
13:00 +16°C° 0 mm 6 m/S 739 mmHg 66%
14:00 +15°C° 0.1 mm 6 m/S 739 mmHg 70%
15:00 +15°C° 0.1 mm 6 m/S 740 mmHg 74%
16:00 +14°C° 0.1 mm 6 m/S 740 mmHg 78%
17:00 +13°C° 0 mm 6 m/S 740 mmHg 83%
18:00 +10°C° 0 mm 6 m/S 741 mmHg 87%
19:00 +9°C° 0 mm 6 m/S 741 mmHg 91%
20:00 +8°C° 0 mm 5 m/S 742 mmHg 92%
21:00 +8°C° 0 mm 4 m/S 742 mmHg 93%
22:00 +8°C° 0 mm 4 m/S 742 mmHg 93%
23:00 +8°C° 0 mm 4 m/S 743 mmHg 93%

19 Mai, Mittwoch

Zeit Temperatur Niederschläge Wind Luftdruck Luftfeuchtigkeit
00:00 +8°C° 0 mm 4 m/S 743 mmHg 92%
01:00 +9°C° 0 mm 3 m/S 743 mmHg 92%
02:00 +8°C° 0 mm 3 m/S 743 mmHg 93%
03:00 +8°C° 0 mm 3 m/S 743 mmHg 94%
04:00 +7°C° 0 mm 3 m/S 743 mmHg 96%
05:00 +7°C° 0 mm 4 m/S 744 mmHg 92%
06:00 +10°C° 0 mm 4 m/S 744 mmHg 88%
07:00 +10°C° 0 mm 5 m/S 744 mmHg 84%
08:00 +10°C° 0 mm 5 m/S 745 mmHg 81%
09:00 +12°C° 0 mm 5 m/S 745 mmHg 77%
10:00 +13°C° 0 mm 5 m/S 745 mmHg 74%
11:00 +13°C° 0.1 mm 6 m/S 745 mmHg 73%
12:00 +13°C° 0.1 mm 6 m/S 745 mmHg 72%
13:00 +13°C° 0.1 mm 6 m/S 746 mmHg 70%
14:00 +13°C° 0 mm 6 m/S 746 mmHg 68%
15:00 +13°C° 0 mm 6 m/S 746 mmHg 66%
16:00 +13°C° 0 mm 6 m/S 746 mmHg 64%
17:00 +10°C° 0 mm 5 m/S 747 mmHg 69%
18:00 +10°C° 0 mm 4 m/S 747 mmHg 75%
19:00 +8°C° 0 mm 3 m/S 747 mmHg 80%
20:00 +7°C° 0 mm 3 m/S 747 mmHg 84%
21:00 +5°C° 0 mm 3 m/S 747 mmHg 89%
22:00 +5°C° 0 mm 2 m/S 747 mmHg 93%
23:00 +5°C° 0 mm 2 m/S 747 mmHg 94%

20 Mai, Donnerstag

Zeit Temperatur Niederschläge Wind Luftdruck Luftfeuchtigkeit
00:00 +4°C° 0 mm 3 m/S 747 mmHg 94%
01:00 +4°C° 0 mm 3 m/S 747 mmHg 95%
02:00 +3°C° 0 mm 3 m/S 747 mmHg 95%
03:00 +3°C° 0 mm 3 m/S 747 mmHg 96%
04:00 +3°C° 0 mm 3 m/S 747 mmHg 96%
05:00 +5°C° 0 mm 3 m/S 747 mmHg 89%
06:00 +7°C° 0 mm 4 m/S 747 mmHg 83%
07:00 +10°C° 0 mm 4 m/S 747 mmHg 76%
08:00 +10°C° 0 mm 5 m/S 747 mmHg 72%
09:00 +12°C° 0 mm 5 m/S 747 mmHg 67%
10:00 +14°C° 0 mm 5 m/S 748 mmHg 63%
11:00 +14°C° 0.2 mm 5 m/S 748 mmHg 66%
12:00 +13°C° 0.2 mm 4 m/S 748 mmHg 68%
13:00 +13°C° 0.2 mm 4 m/S 748 mmHg 71%
14:00 +13°C° 0.3 mm 4 m/S 748 mmHg 73%
15:00 +12°C° 0.3 mm 4 m/S 748 mmHg 75%
16:00 +12°C° 0.3 mm 4 m/S 749 mmHg 78%
17:00 +11°C° 0.1 mm 3 m/S 749 mmHg 80%
18:00 +10°C° 0.1 mm 3 m/S 749 mmHg 82%
19:00 +9°C° 0.1 mm 2 m/S 749 mmHg 84%
20:00 +8°C° 0 mm 2 m/S 749 mmHg 85%
21:00 +7°C° 0 mm 2 m/S 749 mmHg 86%
22:00 +7°C° 0 mm 1 m/S 749 mmHg 87%
23:00 +6°C° 0 mm 2 m/S 749 mmHg 87%

21 Mai, Freitag

Zeit Temperatur Niederschläge Wind Luftdruck Luftfeuchtigkeit
00:00 +6°C° 0 mm 2 m/S 749 mmHg 87%
01:00 +4°C° 0 mm 3 m/S 749 mmHg 87%
02:00 +4°C° 0 mm 3 m/S 749 mmHg 86%
03:00 +4°C° 0 mm 3 m/S 749 mmHg 85%
04:00 +4°C° 0 mm 3 m/S 749 mmHg 84%
05:00 +5°C° 0 mm 3 m/S 749 mmHg 80%
06:00 +7°C° 0 mm 4 m/S 749 mmHg 76%
07:00 +8°C° 0 mm 4 m/S 748 mmHg 72%
08:00 +10°C° 0 mm 4 m/S 748 mmHg 67%
09:00 +11°C° 0 mm 4 m/S 748 mmHg 62%
10:00 +12°C° 0 mm 4 m/S 748 mmHg 56%
11:00 +12°C° 0 mm 4 m/S 748 mmHg 56%
12:00 +12°C° 0 mm 4 m/S 747 mmHg 56%
13:00 +13°C° 0 mm 4 m/S 747 mmHg 56%
14:00 +13°C° 0 mm 3 m/S 747 mmHg 56%
15:00 +13°C° 0 mm 3 m/S 746 mmHg 56%
16:00 +13°C° 0 mm 3 m/S 746 mmHg 57%
17:00 +13°C° 0 mm 2 m/S 746 mmHg 62%
18:00 +12°C° 0 mm 2 m/S 746 mmHg 67%
19:00 +11°C° 0 mm 1 m/S 745 mmHg 72%
20:00 +9°C° 0 mm 2 m/S 745 mmHg 74%
21:00 +8°C° 0 mm 2 m/S 745 mmHg 76%
22:00 +7°C° 0 mm 3 m/S 745 mmHg 78%
23:00 +7°C° 0 mm 3 m/S 745 mmHg 82%
Mehr zeigen

Wir brauchen deine Erlaubnis

Meteoprog und unser Service Anbieter werden persönliche Daten aufbewahren, so wie Cookies, Geräte Bezeichnung oder ähnliche Technologien von deinem Gerät und Prozess, so wie Persönliche Daten Inhalte und Werbungen, genauso wie social Media und den Verkehr zu analysieren.

  • Aufbewahrung und/oder Zugang zu deiner Geräte Informationen.

    Cookies, Geräte Bezeichnung oder andere Informationen, können aufbewahrt oder Zugang zu deinem Gerät erhalten, für den Grund, der oben angegeben wird.

  • Personalisierte Werbung und Inhalte, Messungen, Einblick in das Publikum und Produkt Entwicklung.

    Werbungen und Inhalte können personalisiert werden, basierend auf ein Profil. Mehr Daten können besser personalisierte Werbungen und Inhalte hinzufügen. Werbung und Inhalte können gezeigt und gemessen werden. Einblicke über das Publikum, welche die Werbung gesehen haben und den Inhalt, können abgeleitet werden. So wie Daten können genutzt werden, um es zu verbessern oder die Benutzer Erfahrung zu verbessern das System und die Software.

Wenn du “Ich stimme zu” klickst, erlaubst du uns, die Cookies zu benutzen die Geräte Bezeichnung, den Web oder ähnliche Technologien zu benutzen. Deine Settings, können in deinem Gerät bei deinem Browser geändert werden.

Für den bestimmten Zweck, berechtigten Interessen beruhen darauf, mehr als auf den Inhalt. Du kannst mehr darüber in unseren Privaten und Cookie Politik lesen.